Location: Kalamazoo
(42.2920°N, 85.5870°W)
Time: 03:24:34
(UTC-04:00)

Daily predictions for brighter satellites

Satellite Brightness Start Highest point End
(mag) Time Altitude Azimuth Time Altitude Azimuth Time Altitude Azimuth
Cosmos 1867 4.4 00:08:44 33° ESE 00:08:44 33° ESE 00:13:09 10° NE
Meteor 1-24 Rocket 4.2 00:10:29 42° SE 00:11:43 48° E 00:17:20 10° NNE
Cosmos 1733 3.2 00:08:08 10° N 00:11:51 76° NE 00:11:51 76° NE
H-2A R/B 2.8 00:14:20 32° SW 00:15:53 41° W 00:20:43 10° NNW
SL-8 R/B 3.9 00:14:22 10° WNW 00:19:03 55° SW 00:19:03 55° SW
Lacrosse 5 3.6 00:15:35 10° NNW 00:19:57 28° NNE 00:23:43 13° E
Cosmos 468 Rocket 4.2 00:15:05 10° NNW 00:20:19 62° ENE 00:21:20 51° ESE
IKONOS-2 4.5 00:23:31 69° E 00:23:39 70° ENE 00:27:55 10° N
NOSS 3-2 (A) 3.4 00:22:47 33° SSW 00:25:46 87° ESE 00:32:28 10° NE
USA 234 3.7 00:24:29 39° SSW 00:26:09 46° SW 00:32:25 10° WNW
Cosmos 1814 Rocket 4.1 00:25:57 10° NNW 00:31:15 68° ENE 00:32:11 56° ESE
Cosmos 1655 Rocket 3.9 00:33:11 49° S 00:35:01 86° E 00:41:18 10° N
Cosmos 1340 3.7 00:35:42 38° W 00:35:56 38° WNW 00:39:31 10° N
Cosmos 2344 4.0 00:35:51 39° SE 00:37:25 44° ESE 00:45:18 10° NE
Genesis I 4.3 00:34:35 10° NNW 00:38:20 37° NE 00:38:28 37° NE
Timation 2 Rocket 4.2 00:37:11 48° SSE 00:38:57 64° ESE 00:45:40 10° NNE
Cosmos 2369 3.8 00:33:47 10° NNW 00:39:25 65° ENE 00:40:41 51° ESE
Cosmos 2026 Rocket 3.9 00:39:35 50° SSW 00:41:19 83° W 00:47:25 10° N
Meteor 2-5 Rocket 4.3 00:42:55 34° SW 00:45:10 53° WNW 00:50:48 10° N
Cosmos 2228 Rocket 3.3 00:46:11 10° N 00:50:23 60° ENE 00:50:23 60° ENE
CZ-4C R/B 2.4 00:48:42 33° WSW 00:51:09 66° NW 00:57:10 10° NNE
Cosmos 1486 Rocket 3.8 00:51:30 73° S 00:51:58 83° ESE 00:57:13 10° NNE
Cosmos 1980 Rocket 4.0 00:48:00 10° N 00:52:26 23° NE 00:55:32 15° E
Cosmos 1763 Rocket 3.7 00:49:30 10° NNW 00:54:46 59° ENE 00:55:33 53° ESE
Meteor 2-1 Rocket 4.4 00:49:44 10° NNW 00:55:35 69° W 00:56:43 55° SSW
Cosmos 1408 Rocket 3.7 00:58:19 65° W 00:58:23 65° W 01:02:51 10° N
Cosmos 2278 3.6 00:55:03 10° NNW 01:00:42 75° WSW 01:01:26 65° SSW
Cosmos 405 Rocket 3.3 01:02:49 53° N 01:02:49 53° N 01:05:47 10° N
Cosmos 1689 Rocket 4.0 01:07:53 32° N 01:07:53 32° N 01:09:48 10° N
Cosmos 1151 Rocket 4.3 01:03:40 10° NNE 01:07:19 30° ENE 01:07:19 30° ENE
ALOS 2 2.6 01:09:34 78° NNE 01:09:34 78° NNE 01:13:44 10° N
CZ-4B R/B 2.5 01:11:20 49° N 01:11:20 49° N 01:14:08 10° N
Cosmos 1697 Rocket 3.3 01:05:59 10° NNW 01:11:29 48° ENE 01:13:03 38° ESE
ISS -0.5 01:09:11 10° NW 01:11:36 19° NNE 01:13:34 12° NE
Cosmos 1818 3.9 01:09:50 10° NW 01:15:06 50° WSW 01:15:07 50° WSW
CENTAUR R/B 3.0 01:16:44 42° ESE 01:16:52 42° ESE 01:23:07 10° NE
Cosmos 2082 Rocket 2.0 01:16:38 69° SSE 01:17:07 73° ESE 01:22:47 10° NNE
Cosmos 1833 Rocket 2.8 01:17:26 56° ESE 01:17:36 57° ESE 01:23:07 10° NNE
Landsat 5 3.7 01:18:23 62° N 01:18:23 62° N 01:21:53 10° N
H-2A R/B 2.9 01:15:07 10° N 01:18:16 56° NNW 01:18:16 56° NNW
Cosmos 1656 3.6 01:20:33 10° NNW 01:26:18 80° ENE 01:27:07 65° SE
Cosmos 1743 Rocket 3.8 01:28:38 64° WNW 01:28:38 64° WNW 01:32:52 10° N
Cosmos 1553 Rocket 4.4 01:25:01 10° NNW 01:31:09 52° W 01:32:33 44° SW
Meteor 2-2 Rocket 4.2 01:27:32 10° N 01:33:19 80° E 01:34:11 65° SSE
NOSS 3-2 (C) 4.5 01:30:29 18° WSW 01:34:57 44° NW 01:41:25 10° NNE
Lacrosse 5 rocket 3.2 01:31:45 10° NNW 01:35:32 30° NNE 01:38:02 18° E
Cosmos 1437 Rocket 3.7 01:33:45 10° N 01:36:49 43° NE 01:36:49 43° NE
Cosmos 1674 3.9 01:38:42 38° NE 01:38:42 38° NE 01:41:19 10° NNE
Cosmos 841 Rocket 3.5 01:32:38 10° NNW 01:37:51 65° WSW 01:37:57 64° WSW
Cosmos 724 4.3 01:37:43 57° SW 01:38:55 78° NW 01:44:49 10° NNE
Cosmos 1354 Rocket 4.1 01:41:30 62° WSW 01:42:09 69° WNW 01:47:27 10° NNE
CZ-2C R/B 2.9 01:37:15 10° NNE 01:42:40 54° E 01:43:03 52° ESE
Cosmos 1500 Rocket 3.9 01:44:59 60° NW 01:44:59 60° NW 01:48:53 10° N
Cosmos 1503 Rocket 4.1 01:45:25 60° WSW 01:46:06 66° WNW 01:51:24 10° NNE
Cosmos 1328 Rocket 4.5 01:43:26 10° NNW 01:47:05 39° WNW 01:47:05 39° WNW
Cosmos 2266 Rocket 4.2 01:53:45 49° SW 01:55:17 63° W 02:01:39 10° N
USA 32 4.2 01:51:24 10° N 01:56:37 60° E 01:57:14 56° ESE
SL-16 R/B 3.8 01:55:01 10° N 01:59:57 29° NE 02:03:55 14° ESE
Cosmos 2315 Rocket 3.9 01:54:49 10° N 02:01:09 82° W 02:02:23 60° S
Lacrosse 5 1.9 01:58:16 10° NW 02:02:51 66° W 02:02:51 66° W
Cosmos 2058 3.6 02:05:34 48° ENE 02:05:34 48° ENE 02:09:07 10° NNE
Cosmos 783 Rocket 4.3 02:00:50 10° NNW 02:06:10 89° SW 02:06:36 76° SSE
Cosmos 2322 Rocket 3.4 02:04:16 10° N 02:09:28 36° ENE 02:12:46 20° ESE
Helios 1A Rocket 4.0 02:05:57 10° N 02:09:32 36° WNW 02:09:32 36° WNW
MOS 1-B Rocket 4.3 02:07:31 48° SSE 02:09:52 87° WSW 02:16:25 10° NNW
Cosmos 1538 Rocket 4.5 02:14:20 10° NNW 02:19:29 55° ENE 02:20:55 42° ESE
Meteor 1-27 4.4 02:14:02 10° N 02:19:53 69° ENE 02:21:19 50° SE
SL-14 R/B 3.9 02:27:34 48° ENE 02:27:34 48° ENE 02:30:46 10° NNE
Cosmos 540 Rocket 3.5 02:23:42 10° NNW 02:28:48 60° WSW 02:28:52 60° WSW
CZ-2C R/B 3.2 02:31:01 62° S 02:31:59 79° WSW 02:37:47 10° NNW
Cosmos 1271 Rocket 4.3 02:30:28 10° NNE 02:33:41 26° ENE 02:34:09 25° E
Cosmos 2151 3.8 02:34:00 41° WNW 02:34:00 41° WNW 02:37:48 10° N
ERS-2 4.4 02:32:12 10° NE 02:34:37 17° E 02:34:37 17° E
Cosmos 1805 Rocket 3.6 02:36:22 68° WNW 02:36:22 68° WNW 02:40:43 10° N
Cosmos 1980 Rocket 2.2 02:31:18 10° NNW 02:36:50 59° WSW 02:37:17 57° SW
Cosmos 2360 Rocket 4.3 02:32:43 10° N 02:37:13 24° NE 02:41:42 10° ESE
Cosmos 1703 4.2 02:38:10 41° E 02:38:10 41° E 02:41:44 10° NNE
USA 215 4.4 02:35:53 10° ENE 02:41:13 26° SE 02:42:14 25° SE
Cosmos 1633 Rocket 2.9 02:41:33 83° ESE 02:41:37 83° E 02:46:03 10° N
Cosmos 332 Rocket 3.9 02:39:03 10° NNW 02:43:37 58° W 02:43:37 58° W
Cosmos 1437 4.1 02:45:44 38° NNW 02:45:44 38° NNW 02:48:01 10° N
SL-08 R/B 4.4 02:43:32 54° SSW 02:45:03 82° W 02:51:13 10° N
PSLV R/B 4.0 02:42:08 10° NNE 02:46:34 51° E 02:46:56 50° ESE
Cosmos 1300 3.4 02:44:05 10° NNW 02:47:07 47° NW 02:47:07 47° NW
ISS -0.8 02:45:18 10° NW 02:46:05 16° NW 02:46:05 16° NW
deb Kosmos-1763 4.5 02:49:40 63° ENE 02:49:40 63° ENE 02:53:05 10° NNE
Cosmos 1707 Rocket 4.0 02:46:19 10° NNW 02:50:12 49° WNW 02:50:12 49° WNW
Aureole 1 Rocket 4.5 02:46:52 10° NW 02:51:33 36° WSW 02:51:38 36° WSW
Cosmos 1666 Rocket 3.7 02:54:02 58° W 02:54:02 58° W 02:58:19 10° N
Cosmos 1697 Rocket 4.0 02:50:35 10° NW 02:54:45 25° W 02:54:45 25° W
Cosmos 1726 2.7 02:51:31 10° NNW 02:54:26 49° NW 02:54:26 49° NW
Cosmos 2242 Rocket 3.4 02:52:45 10° NNW 02:57:10 75° W 02:57:15 74° WSW
Meteor 1-11 4.4 02:57:16 49° SW 02:58:40 64° WNW 03:04:28 10° N
ATLAS 5 CENTAUR R/B 2.4 03:00:28 41° SE 03:01:03 43° ESE 03:05:58 10° NE
Cosmos 2082 Rocket 4.2 02:58:27 12° W 03:01:48 19° NW 03:05:52 10° N
Cosmos 1833 Rocket 4.4 02:59:07 17° W 03:01:54 24° NW 03:06:24 10° N
Cosmos 1470 Rocket 3.6 03:04:26 63° SE 03:04:58 72° E 03:09:23 10° NNE
CENTAUR R/B 3.5 03:03:52 22° W 03:07:30 42° NW 03:14:07 10° NNE
Cosmos 1933 Rocket 3.5 03:08:34 65° SSE 03:09:07 77° E 03:13:33 10° N
SL-08 R/B 4.1 03:09:01 26° SE 03:11:31 51° ENE 03:16:17 10° N
Cosmos 1455 2.4 03:10:54 10° N 03:14:40 62° E 03:15:01 59° ESE
Lacrosse 5 rocket 2.3 03:10:46 10° NW 03:13:42 37° W 03:13:42 37° W
ASTEX 1 4.2 03:10:48 10° N 03:15:20 37° WNW 03:16:09 34° W
Sich 1 3.8 03:16:15 38° W 03:16:35 38° WNW 03:20:46 10° N
Cosmos 2181 Rocket 4.3 03:11:09 10° N 03:17:17 62° E 03:21:09 24° SSE
Cosmos 1626 2.3 03:18:21 61° ESE 03:18:35 62° E 03:22:18 10° NNE
Cosmos 968 Rocket 4.0 03:19:56 38° WSW 03:21:16 47° WNW 03:26:15 10° N
CZ-2C R/B 4.3 03:18:21 10° NNW 03:22:30 22° WNW 03:24:34 18° W
Landsat 4 4.0 03:24:57 50° WNW 03:24:57 50° WNW 03:28:15 10° NNW
Cosmos 2112 Rocket 4.3 03:21:31 10° NNW 03:26:42 66° ENE 03:30:11 21° SSE
Cosmos 371 Rocket 4.3 03:28:54 10° NW 03:32:53 29° W 03:32:53 29° W
Cosmos 1833 4.4 03:33:18 35° S 03:35:40 64° ESE 03:41:21 10° NNE
COSMOS 2428 4.3 03:31:42 10° N 03:36:51 33° NE 03:41:56 10° ESE
GENESIS II 4.3 03:33:13 10° NNW 03:37:23 84° ENE 03:39:18 30° SE
Cosmos 1346 3.6 03:37:21 51° E 03:37:23 51° E 03:40:22 10° NNE
Cosmos 304 Rocket 3.7 03:32:58 10° NNW 03:37:50 85° ENE 03:40:21 29° SSE
ATLAS CENTAUR R/B 2.9 03:35:50 10° NNW 03:40:18 40° NE 03:44:26 10° ESE
USA 161 3.0 03:43:22 26° E 03:43:30 26° ENE 03:45:35 10° NNE
SL-16 R/B 2.6 03:38:51 10° NW 03:44:12 44° WSW 03:45:43 36° SW
Cosmos 1862 Rocket 3.8 03:40:04 10° NNW 03:44:25 51° W 03:45:14 44° SW
USA 229 DEB 4.3 03:40:56 26° S 03:44:34 49° ESE 03:51:14 10° NE
USA 229 4.3 03:41:02 26° S 03:44:41 48° ESE 03:51:20 10° NE
Cosmos 2322 Rocket 2.9 03:48:26 10° NW 03:53:26 34° WSW 03:54:31 31° SW
Meteor 1-4 Rocket 3.8 03:50:56 10° NNW 03:54:04 29° W 03:54:04 29° W
CZ-2D R/B 3.6 03:52:04 10° NE 03:56:43 31° E 04:01:23 10° SSE
Cosmos 2219 Rocket 4.4 03:52:35 10° N 03:57:10 25° NE 04:01:42 10° ESE
Cosmos 1709 Rocket 4.2 03:55:55 30° SW 03:58:58 57° W 04:05:07 10° N
Okean O Rocket 4.3 03:58:12 10° ENE 04:00:12 13° E 04:02:12 10° ESE
ATLAS 2A CENTAUR R/B 4.3 03:56:25 19° S 04:00:50 28° SE 04:24:07 10° E
SL-16 R/B 3.1 04:00:35 10° SSE 04:06:41 58° ENE 04:12:50 10° N
ERS-2 3.2 04:05:16 10° N 04:08:35 31° WNW 04:09:29 28° W
Cosmos 2298 Rocket 4.1 04:06:07 26° S 04:09:10 75° ESE 04:14:31 10° NNE
Cosmos 1271 Rocket 4.3 04:06:51 10° NW 04:09:21 19° W 04:09:21 19° W
AQUA 4.1 04:05:29 10° N 04:10:08 54° WNW 04:12:19 29° SW
Cosmos 1869 Rocket 3.5 04:08:33 29° S 04:10:46 90° NNW 04:15:14 10° N
Spot 4 Rocket 4.0 04:07:22 10° NNE 04:12:33 87° ESE 04:15:44 24° SSW
Cosmos 1680 Rocket 3.9 04:07:56 10° NW 04:12:48 41° WSW 04:15:02 27° SSW
NPP 4.1 04:08:37 10° N 04:13:45 46° WNW 04:16:33 25° SW
Cosmos 1869 4.3 04:11:31 10° NNW 04:14:56 28° W 04:15:32 27° WSW
Cosmos 2292 Rocket 3.9 04:18:18 29° WSW 04:19:07 33° WNW 04:22:46 10° N
Meteor 2-3 Rocket 4.3 04:14:49 13° S 04:19:56 57° E 04:25:38 10° NNE
Cosmos 2221 Rocket 3.8 04:16:37 10° NNW 04:21:03 56° W 04:23:36 24° SSW
Cosmos 2360 Rocket 2.3 04:16:05 10° NNW 04:21:35 56° WSW 04:26:51 11° S
USA 215 3.3 04:18:07 10° NE 04:24:40 86° NW 04:29:34 19° SW
Cosmos 2227 Rocket 4.1 04:23:35 10° SSE 04:28:00 24° ESE 04:32:25 10° NE
In-Cosmos 22 Rocket 4.3 04:23:36 15° S 04:28:04 70° E 04:33:30 10° NNE
ARIANE 5 R/B 2.5 04:26:30 10° NNE 04:31:37 90° W 04:35:28 17° SSW
EO 1 Del DPAF 3.2 04:29:57 14° S 04:33:14 76° WSW 04:37:09 10° NNW
OE (NEXTSAT) 4.4 04:33:55 26° WSW 04:35:47 75° SSE 04:39:23 10° ENE
Resurs 1-4 Rocket 2.3 04:30:36 10° NNE 04:35:56 72° ESE 04:40:53 12° S
Cosmos 1733 Rocket 3.9 04:35:43 10° SSE 04:39:53 49° E 04:44:08 10° NNE
Cosmos 1703 Rocket 4.4 04:36:13 10° NNW 04:40:06 32° W 04:42:13 21° SW
Cosmos 1898 Rocket 3.5 04:37:55 20° SSW 04:41:33 69° WNW 04:46:43 10° NNE
IRS-1D 3.6 04:36:32 10° NNE 04:41:54 82° WNW 04:46:22 15° SSW
Cosmos 1937 Rocket 3.5 04:39:01 17° SSW 04:43:13 89° ESE 04:48:32 10° NNE
Cosmos 2333 4.3 04:37:48 10° NNW 04:43:29 84° ENE 04:49:12 10° SSE
Cosmos 2219 3.4 04:41:17 18° SW 04:45:31 65° WNW 04:51:16 10° NNE
SL-23 DEB 3.7 04:42:37 10° NW 04:45:47 78° NNE 04:50:02 10° ESE
ATLAS 5 CENTAUR R/B 3.3 04:42:01 12° W 04:45:54 30° NW 04:50:37 10° NNE
Cosmos 2322 4.3 04:41:29 10° NW 04:46:40 36° WSW 04:51:48 10° S
H-2A ROCKET BODY 3.4 04:50:06 11° S 04:50:06 11° S 04:50:26 10° S
Okean 1-7 3.6 04:47:02 10° NNW 04:51:09 39° W 04:54:23 15° SSW
Coronas F rocket 3.5 04:51:22 10° SSE 04:53:39 24° E 04:55:57 10° NE
Abrixas 3.2 04:50:51 10° WNW 04:53:55 58° NNE 04:56:57 10° ESE
Cosmos 2297 Rocket 3.8 04:55:29 10° SSE 05:00:21 31° ESE 05:05:15 10° NE
Cosmos 389 Rocket 2.6 04:57:39 10° NNW 05:01:20 64° W 05:04:58 10° S
Cosmos 1782 3.5 04:59:46 10° N 05:03:44 56° E 05:07:39 10° SSE
ASTRO F (AKARI) 4.2 05:00:34 10° SSE 05:03:47 88° ENE 05:06:57 10° NNW
USA 129 2.6 05:06:13 19° WNW 05:06:13 19° WNW 05:07:07 10° NW
NOSS 3-1 (C) 3.8 05:01:42 10° SSW 05:07:25 59° ESE 05:13:46 10° NE
Cosmos 1238 Rocket 4.4 05:01:32 10° N 05:08:10 67° E 05:13:56 10° SSE
IRS-1C Rocket 4.3 05:03:06 10° NNE 05:08:25 78° ESE 05:13:41 10° S
Cosmos 2341 Rocket 4.1 05:02:27 10° S 05:08:46 88° E 05:15:11 10° N
Cosmos 1980 4.2 05:04:18 10° NNW 05:09:57 65° ENE 05:15:32 10° SE
Cosmos 2333 Rocket 2.7 05:04:59 10° NNW 05:10:43 69° ENE 05:16:25 10° SSE
Nadezhda 3 Rocket 4.0 05:06:20 10° NNW 05:12:28 70° W 05:18:34 10° S
Sich 1 Rocket 3.8 05:09:41 10° S 05:14:02 71° E 05:18:26 10° NNE
Cosmos 2082 4.3 05:08:39 10° S 05:14:13 57° ESE 05:19:50 10° NNE
Cosmos 1892 2.8 05:11:43 10° SSW 05:15:34 62° W 05:19:24 10° N
Cosmos 1908 Rocket 4.2 05:14:04 10° S 05:18:23 58° E 05:22:42 10° NNE
ATLAS CENTAUR R/B 2.6 05:15:29 10° WNW 05:19:10 24° WSW 05:22:36 10° SSW
Cosmos 2154 Rocket 4.2 05:13:07 10° SSW 05:19:23 63° W 05:25:43 10° N
CZ-4B R/B 3.8 05:16:31 10° NNE 05:20:34 53° E 05:24:48 10° S
COSMOS 2428 3.2 05:15:56 10° NW 05:21:07 37° WSW 05:26:16 10° S
MOZ.5/SAFIR/RUBIN 5/SL-8 4.1 05:16:56 10° SSE 05:21:37 72° ENE 05:26:21 10° N
Cosmos 1674 Rocket 3.5 05:18:18 10° NNW 05:22:37 69° W 05:26:55 10° S
Cosmos 1340 Rocket 2.8 05:19:40 10° S 05:23:42 85° WNW 05:27:43 10° N
SME Rocket 3.8 05:20:48 10° S 05:26:48 52° WSW 05:31:03 10° NNW
PAYLOAD B 4.4 05:21:48 10° NNE 05:27:21 83° ESE 05:32:53 10° SSW
CZ-2C R/B 3.8 05:23:09 10° S 05:27:36 61° W 05:32:10 10° NNW
Cosmos 2237 Rocket 2.3 05:24:58 10° NNW 05:30:43 86° ENE 05:36:25 10° SSE
CZ-2D R/B 3.0 05:32:04 10° N 05:36:47 34° WNW 05:41:32 10° SW
